When you browse on this site, cookies collect data to enhance your experience and personalize the content and advertising you see.
Visit our Privacy Policy to learn more. By continuing to use the site, you agree to this use of cookies and data.
  • In Hungary
  • List of Countries
  • For 7 days
  • Water Temperature
  • Satellite Maps
  • Weather Map
  • News
  • Weather Widgets
  • user-avatar
    Login

    Hourly Weather Tolkaevka

    Today, 24 January, Thursday

    Time Temperature Precipitation Wind Pressure Humidity
    00:00 -24°C° 0 mm 1 mps 756 mmHg 99%
    01:00 -24°C° 0 mm 1 mps 757 mmHg 99%
    02:00 -24°C° 0 mm 1 mps 757 mmHg 98%
    03:00 -24°C° 0 mm 1 mps 757 mmHg 98%
    04:00 -24°C° 0 mm 1 mps 758 mmHg 98%
    05:00 -24°C° 0 mm 1 mps 758 mmHg 98%
    06:00 -24°C° 0 mm 1 mps 758 mmHg 98%
    07:00 -24°C° 0 mm 1 mps 758 mmHg 97%
    08:00 -23°C° 0 mm 1 mps 758 mmHg 96%
    09:00 -25°C° 0 mm 2 mps 758 mmHg 95%
    10:00 -25°C° 0 mm 2 mps 758 mmHg 94%
    11:00 -23°C° 0 mm 2 mps 758 mmHg 93%
    12:00 -23°C° 0 mm 3 mps 758 mmHg 92%
    13:00 -22°C° 0 mm 3 mps 758 mmHg 91%
    14:00 -22°C° 0 mm 4 mps 758 mmHg 91%
    15:00 -22°C° 0 mm 4 mps 757 mmHg 90%
    16:00 -20°C° 0 mm 4 mps 757 mmHg 90%
    17:00 -21°C° 0 mm 5 mps 756 mmHg 89%
    18:00 -21°C° 0 mm 6 mps 756 mmHg 88%
    19:00 -21°C° 0 mm 7 mps 755 mmHg 87%
    20:00 -20°C° 0.5 mm 7 mps 754 mmHg 89%
    21:00 -19°C° 0.5 mm 7 mps 754 mmHg 92%
    22:00 -19°C° 0.5 mm 8 mps 753 mmHg 94%
    23:00 -18°C° 0.9 mm 8 mps 752 mmHg 94%

    Tomorrow, 25 January, Friday

    Time Temperature Precipitation Wind Pressure Humidity
    00:00 -18°C° 0.9 mm 8 mps 751 mmHg 93%
    01:00 -17°C° 0.9 mm 9 mps 751 mmHg 93%
    02:00 -17°C° 0.9 mm 8 mps 750 mmHg 93%
    03:00 -17°C° 0.9 mm 8 mps 749 mmHg 93%
    04:00 -16°C° 0.9 mm 8 mps 749 mmHg 93%
    05:00 -15°C° 0.4 mm 7 mps 748 mmHg 93%
    06:00 -16°C° 0.4 mm 6 mps 748 mmHg 93%
    07:00 -16°C° 0.4 mm 6 mps 747 mmHg 94%
    08:00 -14°C° 0.3 mm 5 mps 747 mmHg 94%
    09:00 -14°C° 0.3 mm 5 mps 747 mmHg 94%
    10:00 -14°C° 0.3 mm 5 mps 748 mmHg 94%
    11:00 -12°C° 0.1 mm 4 mps 748 mmHg 93%
    12:00 -12°C° 0.1 mm 4 mps 748 mmHg 92%
    13:00 -12°C° 0.1 mm 4 mps 748 mmHg 92%
    14:00 -12°C° 0 mm 4 mps 749 mmHg 91%
    15:00 -12°C° 0 mm 4 mps 750 mmHg 90%
    16:00 -12°C° 0 mm 4 mps 750 mmHg 89%
    17:00 -15°C° 0 mm 3 mps 751 mmHg 91%
    18:00 -17°C° 0 mm 3 mps 752 mmHg 93%
    19:00 -21°C° 0 mm 3 mps 753 mmHg 96%
    20:00 -22°C° 0 mm 3 mps 753 mmHg 97%
    21:00 -23°C° 0 mm 3 mps 754 mmHg 97%
    22:00 -23°C° 0 mm 2 mps 754 mmHg 98%
    23:00 -24°C° 0 mm 2 mps 755 mmHg 98%

    Day after tomorrow, 26 January, Saturday

    Time Temperature Precipitation Wind Pressure Humidity
    00:00 -24°C° 0 mm 2 mps 755 mmHg 98%
    01:00 -25°C° 0 mm 2 mps 756 mmHg 98%
    02:00 -25°C° 0 mm 2 mps 756 mmHg 96%
    03:00 -26°C° 0 mm 2 mps 756 mmHg 95%
    04:00 -26°C° 0 mm 2 mps 757 mmHg 93%
    05:00 -26°C° 0 mm 2 mps 757 mmHg 92%
    06:00 -26°C° 0 mm 2 mps 757 mmHg 92%
    07:00 -26°C° 0 mm 2 mps 758 mmHg 91%
    08:00 -26°C° 0 mm 2 mps 758 mmHg 90%
    09:00 -25°C° 0 mm 2 mps 758 mmHg 89%
    10:00 -25°C° 0 mm 2 mps 758 mmHg 88%
    11:00 -23°C° 0 mm 2 mps 758 mmHg 88%
    12:00 -21°C° 0 mm 2 mps 758 mmHg 87%
    13:00 -20°C° 0 mm 2 mps 758 mmHg 86%
    14:00 -20°C° 0 mm 2 mps 758 mmHg 86%
    15:00 -22°C° 0 mm 3 mps 758 mmHg 87%
    16:00 -22°C° 0 mm 3 mps 758 mmHg 87%
    17:00 -23°C° 0 mm 3 mps 758 mmHg 87%
    18:00 -24°C° 0 mm 3 mps 758 mmHg 87%
    19:00 -25°C° 0 mm 4 mps 758 mmHg 87%
    20:00 -25°C° 0 mm 4 mps 757 mmHg 85%
    21:00 -25°C° 0 mm 4 mps 757 mmHg 84%
    22:00 -25°C° 0 mm 4 mps 757 mmHg 82%
    23:00 -24°C° 0 mm 4 mps 757 mmHg 83%

    27 January, Sunday

    Time Temperature Precipitation Wind Pressure Humidity
    00:00 -24°C° 0 mm 4 mps 756 mmHg 83%
    01:00 -24°C° 0 mm 4 mps 756 mmHg 84%
    02:00 -25°C° 0 mm 5 mps 756 mmHg 81%
    03:00 -24°C° 0 mm 5 mps 756 mmHg 78%
    04:00 -24°C° 0 mm 6 mps 755 mmHg 75%
    05:00 -24°C° 0 mm 6 mps 755 mmHg 75%
    06:00 -24°C° 0 mm 6 mps 755 mmHg 76%
    07:00 -24°C° 0 mm 6 mps 754 mmHg 76%
    08:00 -24°C° 0 mm 7 mps 754 mmHg 78%
    09:00 -23°C° 0 mm 7 mps 754 mmHg 79%
    10:00 -22°C° 0 mm 8 mps 754 mmHg 81%
    11:00 -21°C° 0 mm 8 mps 753 mmHg 82%
    12:00 -19°C° 0 mm 8 mps 753 mmHg 82%
    13:00 -18°C° 0 mm 8 mps 753 mmHg 83%
    14:00 -18°C° 0 mm 7 mps 752 mmHg 83%
    15:00 -18°C° 0 mm 7 mps 752 mmHg 83%
    16:00 -18°C° 0 mm 7 mps 751 mmHg 83%
    17:00 -19°C° 0 mm 7 mps 751 mmHg 83%
    18:00 -19°C° 0 mm 7 mps 750 mmHg 83%
    19:00 -19°C° 0 mm 7 mps 750 mmHg 83%
    20:00 -19°C° 0 mm 7 mps 750 mmHg 83%
    21:00 -19°C° 0 mm 8 mps 749 mmHg 83%
    22:00 -19°C° 0 mm 8 mps 749 mmHg 83%
    23:00 -21°C° 0 mm 8 mps 749 mmHg 83%

    28 January, Monday

    Time Temperature Precipitation Wind Pressure Humidity
    00:00 -21°C° 0 mm 8 mps 748 mmHg 84%
    01:00 -21°C° 0 mm 8 mps 748 mmHg 85%
    02:00 -21°C° 0 mm 8 mps 748 mmHg 86%
    03:00 -21°C° 0 mm 8 mps 747 mmHg 86%
    04:00 -21°C° 0 mm 8 mps 747 mmHg 87%
    05:00 -21°C° 0 mm 8 mps 746 mmHg 88%
    06:00 -21°C° 0 mm 8 mps 746 mmHg 88%
    07:00 -21°C° 0 mm 8 mps 745 mmHg 88%
    08:00 -19°C° 0.1 mm 8 mps 745 mmHg 90%
    09:00 -18°C° 0.1 mm 8 mps 745 mmHg 91%
    10:00 -19°C° 0.1 mm 9 mps 744 mmHg 93%
    11:00 -16°C° 0.5 mm 8 mps 744 mmHg 93%
    12:00 -15°C° 0.5 mm 8 mps 744 mmHg 94%
    13:00 -13°C° 0.5 mm 7 mps 743 mmHg 95%
    14:00 -12°C° 0.7 mm 7 mps 743 mmHg 94%
    15:00 -12°C° 0.7 mm 7 mps 743 mmHg 93%
    16:00 -12°C° 0.7 mm 7 mps 742 mmHg 93%
    17:00 -10°C° 0.1 mm 6 mps 742 mmHg 93%
    18:00 -10°C° 0.1 mm 6 mps 742 mmHg 93%
    19:00 -8°C° 0.1 mm 5 mps 743 mmHg 93%
    20:00 -8°C° 0.1 mm 5 mps 743 mmHg 94%
    21:00 -8°C° 0.1 mm 4 mps 743 mmHg 95%
    22:00 -8°C° 0.1 mm 4 mps 743 mmHg 95%
    23:00 -10°C° 0 mm 3 mps 743 mmHg 95%

    29 January, Tuesday

    Time Temperature Precipitation Wind Pressure Humidity
    00:00 -14°C° 0 mm 3 mps 743 mmHg 94%
    01:00 -17°C° 0 mm 3 mps 744 mmHg 94%
    02:00 -17°C° 0 mm 2 mps 744 mmHg 95%
    03:00 -18°C° 0 mm 2 mps 744 mmHg 96%
    04:00 -18°C° 0 mm 2 mps 744 mmHg 97%
    05:00 -18°C° 0 mm 2 mps 745 mmHg 97%
    06:00 -15°C° 0 mm 1 mps 745 mmHg 97%
    07:00 -15°C° 0 mm 1 mps 745 mmHg 98%
    08:00 -15°C° 0 mm 1 mps 746 mmHg 97%
    09:00 -14°C° 0 mm 1 mps 746 mmHg 97%
    10:00 -14°C° 0 mm 1 mps 747 mmHg 96%
    11:00 -13°C° 0 mm 1 mps 747 mmHg 95%
    12:00 -12°C° 0 mm 1 mps 747 mmHg 95%
    13:00 -13°C° 0 mm 2 mps 748 mmHg 94%
    14:00 -13°C° 0 mm 2 mps 748 mmHg 94%
    15:00 -13°C° 0 mm 2 mps 748 mmHg 95%
    16:00 -13°C° 0 mm 2 mps 749 mmHg 96%
    17:00 -14°C° 0 mm 2 mps 749 mmHg 96%
    18:00 -14°C° 0 mm 2 mps 749 mmHg 97%
    19:00 -15°C° 0 mm 2 mps 750 mmHg 97%
    20:00 -15°C° 0 mm 2 mps 750 mmHg 98%
    21:00 -16°C° 0 mm 2 mps 751 mmHg 98%
    22:00 -16°C° 0 mm 2 mps 751 mmHg 98%
    23:00 -16°C° 0 mm 2 mps 751 mmHg 98%
    Show more